2025-274C

Last updated on Wed Dec 31 2025 00:02:07 GMT+0000 (Coordinated Universal Time)

1 66652U 25274C 25364.45595378 .00004675 00000+0 46585-3 0 9993 2 66652 97.7402 291.3327 0011301 192.6380 167.4558 14.92017301 5041
UTC large
Height (km)
Speed (km/s)
/
Latitude / Longitude
Inclination (degrees)
Orbital Period (minutes)
Azimuth
Elevation
Range (km)
Doppler Factor

Next 0 passes for location: London (51.5072 / 0.1276)

Sorry there are no passes over London.